Weather History for Corpus Christi, TX

Change the Weather History Date:

Tuesday, April 23, 2013

  Actual Average Record
Temperature  
Mean Temperature 78 °F 74 °F  
Max Temperature 85 °F 83 °F 102 °F (1955)
Min Temperature 71 °F 65 °F 48 °F (1998)
Degree Days  
Heating Degree Days 0 0  
Month to date heating degree days 9 15  
Since 1 July heating degree days 525 896  
Cooling Degree Days 13 9  
Month to date cooling degree days 188 169  
Year to date cooling degree days 489 360  
Growing Degree Days 28 (Base 50)    
Moisture  
Dew Point 67 °F    
Average Humidity 71    
Maximum Humidity 84    
Minimum Humidity 58    
Precipitation  
Precipitation 0.00 in 0.07 in 7.19 in (1956)
Month to date precipitation 0.17 1.35  
Year to date precipitation 1.92 6.71  
Snow  
Snow 0.00 in - - ()
Month to date snowfall 0.0  
Since 1 July snowfall 0.0  
Snow Depth 0.00 in    
Sea Level Pressure  
Sea Level Pressure 29.88 in    
Wind  
Wind Speed 17 mph (SE)    
Max Wind Speed 29 mph    
Max Gust Speed 35 mph    
Visibility 10 miles    
Events      
T = Trace of Precipitation, MM = Missing Value Source: NWS Daily Summary

Daily Weather History Graph

Daily Weather History Graph

Search for Another Location

Airport:

Trip Planner

Search our weather history database for the weather conditions in past years. The results will help you decide how hot, cold, wet, or windy it might be!

Date:

Astronomy

Apr. 23, 2013 Rise Set
Actual Time 6:57 AM CDT 7:59 PM CDT
Civil Twilight 6:32 AM CDT 8:24 PM CDT
Nautical Twilight 6:04 AM CDT 8:52 PM CDT
Astronomical Twilight 5:34 AM CDT 9:22 PM CDT
Moon 6:04 PM CDT (4/23) 5:14 AM CDT (4/23)
Length of Visible Light 13h 51m
Length of Day
13h 02m
Waxing Gibbous, 94% of the Moon is Illuminated
Apr 23
Waxing Gibbous
Apr 25
Full
May 2
Last Quarter
May 9
New
May 17
First Quarter

Hourly Weather History & Observations

Time (CDT) Temp. Heat Index Dew Point Humidity Pressure Visibility Wind Dir Wind Speed Gust Speed Precip Events Conditions
12:51 AM 71.1 °F - 66.0 °F 84% 29.93 in 10.0 mi SSE 16.1 mph - N/A   Scattered Clouds
1:08 AM 71.6 °F - 66.2 °F 83% 29.93 in 10.0 mi SSE 17.3 mph - N/A   Mostly Cloudy
1:51 AM 72.0 °F - 66.0 °F 81% 29.92 in 10.0 mi SSE 15.0 mph - N/A   Overcast
2:46 AM 71.6 °F - 66.2 °F 83% 29.90 in 10.0 mi SSE 13.8 mph - N/A   Mostly Cloudy
2:51 AM 71.1 °F - 66.0 °F 84% 29.90 in 10.0 mi SSE 15.0 mph - N/A   Overcast
3:51 AM 72.0 °F - 66.9 °F 84% 29.87 in 10.0 mi SSE 16.1 mph - N/A   Mostly Cloudy
4:32 AM 71.6 °F - 66.2 °F 83% 29.87 in 10.0 mi SSE 12.7 mph - N/A   Overcast
4:51 AM 72.0 °F - 66.9 °F 84% 29.86 in 10.0 mi SSE 12.7 mph - N/A   Overcast
5:47 AM 71.6 °F - 66.2 °F 83% 29.87 in 10.0 mi SSE 15.0 mph - N/A   Overcast
5:51 AM 72.0 °F - 66.9 °F 84% 29.87 in 10.0 mi SSE 13.8 mph - N/A   Overcast
6:41 AM 71.6 °F - 66.2 °F 83% 29.87 in 10.0 mi SE 16.1 mph - N/A   Mostly Cloudy
6:51 AM 72.0 °F - 66.9 °F 84% 29.87 in 10.0 mi SSE 12.7 mph - N/A   Overcast
7:06 AM 71.6 °F - 66.2 °F 83% 29.88 in 10.0 mi SE 13.8 mph - N/A   Overcast
7:48 AM 73.4 °F - 66.2 °F 78% 29.89 in 10.0 mi SSE 15.0 mph - N/A   Overcast
7:51 AM 73.0 °F - 66.9 °F 81% 29.89 in 10.0 mi SE 16.1 mph - N/A   Overcast
8:51 AM 75.0 °F - 66.9 °F 76% 29.90 in 10.0 mi SSE 18.4 mph - N/A   Overcast
9:44 AM 77.0 °F - 66.2 °F 69% 29.90 in 10.0 mi SSE 24.2 mph - N/A   Overcast
9:51 AM 78.1 °F - 66.9 °F 68% 29.90 in 10.0 mi SSE 20.7 mph 32.2 mph N/A   Overcast
10:51 AM 80.1 °F 82.1 °F 66.0 °F 62% 29.90 in 10.0 mi SSE 25.3 mph 29.9 mph N/A   Mostly Cloudy
11:51 AM 80.1 °F 82.1 °F 66.0 °F 62% 29.89 in 10.0 mi SSE 24.2 mph - N/A   Overcast
12:51 PM 82.0 °F 84.5 °F 66.9 °F 60% 29.88 in 10.0 mi SSE 23.0 mph 32.2 mph N/A   Mostly Cloudy
1:51 PM 81.0 °F 83.3 °F 66.9 °F 62% 29.86 in 10.0 mi SSE 25.3 mph - N/A   Overcast
2:44 PM 82.4 °F 84.6 °F 66.2 °F 58% 29.86 in 10.0 mi SE 20.7 mph 27.6 mph N/A   Overcast
2:51 PM 82.0 °F 84.1 °F 66.0 °F 58% 29.86 in 10.0 mi SE 21.9 mph 27.6 mph N/A   Overcast
3:51 PM 81.0 °F 83.0 °F 66.0 °F 60% 29.84 in 10.0 mi SSE 21.9 mph 29.9 mph N/A   Overcast
3:57 PM 80.6 °F 82.7 °F 66.2 °F 61% 29.85 in 10.0 mi SE 20.7 mph 28.8 mph N/A   Overcast
4:51 PM 80.1 °F 82.7 °F 68.0 °F 67% 29.84 in 10.0 mi SE 18.4 mph - N/A   Overcast
5:07 PM 80.6 °F 83.2 °F 68.0 °F 65% 29.83 in 10.0 mi SE 23.0 mph - N/A   Overcast
5:51 PM 79.0 °F - 68.0 °F 69% 29.83 in 10.0 mi SE 17.3 mph 26.5 mph N/A   Overcast
6:26 PM 78.8 °F - 68.0 °F 69% 29.83 in 10.0 mi SE 21.9 mph 26.5 mph N/A   Overcast
6:51 PM 78.1 °F - 68.0 °F 71% 29.83 in 10.0 mi SE 19.6 mph - N/A   Overcast
7:51 PM 77.0 °F - 68.0 °F 74% 29.85 in 10.0 mi SE 18.4 mph - N/A   Overcast
8:51 PM 77.0 °F - 69.1 °F 76% 29.88 in 10.0 mi SE 12.7 mph - N/A   Overcast
9:51 PM 75.0 °F - 70.0 °F 84% 29.90 in 10.0 mi East 10.4 mph - N/A   Overcast
10:09 PM 75.2 °F - 69.8 °F 83% 29.91 in 10.0 mi East 12.7 mph - N/A   Mostly Cloudy
10:37 PM 75.2 °F - 69.8 °F 83% 29.91 in 10.0 mi East 9.2 mph - N/A   Mostly Cloudy
10:51 PM 75.0 °F - 70.0 °F 84% 29.92 in 10.0 mi East 9.2 mph - N/A   Mostly Cloudy
11:20 PM 75.2 °F - 69.8 °F 83% 29.93 in 10.0 mi ENE 6.9 mph - N/A   Overcast
11:51 PM 75.0 °F - 70.0 °F 84% 29.95 in 10.0 mi ENE 8.1 mph - N/A   Overcast